Weather History for KIDP - February, 2014

Change the Weather History Date:

Sunday, February 23, 2014

  Actual Average (KCFV) Record (KCFV)
Temperature  
Mean Temperature 38 °F -  
Max Temperature 46 °F 48 °F 72 °F (2011)
Min Temperature 28 °F 29 °F 12 °F (2003)
Degree Days  
Heating Degree Days 27    
Moisture  
Dew Point 19 °F    
Average Humidity 52    
Maximum Humidity 81    
Minimum Humidity 29    
Precipitation  
Precipitation 0.00 in - - ()
Sea Level Pressure  
Sea Level Pressure 30.16 in    
Wind  
Wind Speed 16 mph (NNE)    
Max Wind Speed 25 mph    
Max Gust Speed 31 mph    
Visibility 10 miles    
Events      
Averages and records for this station are not official NWS values.
T = Trace of Precipitation, MM = Missing Value Source: NWS Daily Summary

Daily Weather History Graph

Daily Weather History Graph

Search for Another Location

Airport or City:

Trip Planner

Search our weather history database for the weather conditions in past years. The results will help you decide how hot, cold, wet, or windy it might be!

Date:

Astronomy

Feb. 23, 2014 Rise Set
Actual Time 7:02 AM CST 6:11 PM CST
Civil Twilight 6:35 AM CST 6:37 PM CST
Nautical Twilight 6:05 AM CST 7:07 PM CST
Astronomical Twilight 5:35 AM CST 7:38 PM CST
Moon 1:57 AM CST (2/23) 12:18 PM CST (2/23)
Length of Visible Light 12h 01m
Length of Day
11h 09m
Last Quarter, 38% of the Moon is Illuminated
Feb 23
Last Quarter
Mar 1
New
Mar 8
First Quarter
Mar 16
Full
Mar 23
Last Quarter

Hourly Weather History & Observations

Time (CST) Temp. Windchill Dew Point Humidity Pressure Visibility Wind Dir Wind Speed Gust Speed Precip Events Conditions
12:15 AM 39.2 °F 31.2 °F 32.0 °F 75% 29.95 in 10.0 mi NE 13.8 mph - N/A   Clear
12:35 AM 37.4 °F 29.3 °F 32.0 °F 81% 29.97 in 10.0 mi NNE 12.7 mph - N/A   Clear
12:55 AM 37.4 °F 29.3 °F 32.0 °F 81% 29.98 in 10.0 mi NNE 12.7 mph - N/A   Clear
1:15 AM 37.4 °F 28.9 °F 30.2 °F 75% 29.98 in 10.0 mi NNE 13.8 mph - N/A   Scattered Clouds
1:35 AM 35.6 °F 25.5 °F 30.2 °F 81% 29.99 in 10.0 mi NNE 17.3 mph - N/A   Mostly Cloudy
1:55 AM 35.6 °F 25.2 °F 28.4 °F 75% 29.97 in 10.0 mi NE 18.4 mph 25.3 mph N/A   Overcast
2:15 AM 35.6 °F 24.5 °F 28.4 °F 75% 29.98 in 10.0 mi NNE 20.7 mph 26.5 mph N/A   Scattered Clouds
2:35 AM 33.8 °F 22.5 °F 28.4 °F 81% 30.00 in 10.0 mi NNE 19.6 mph 26.5 mph N/A   Clear
2:55 AM 33.8 °F 22.8 °F 26.6 °F 75% 30.02 in 10.0 mi NNE 18.4 mph - N/A   Clear
3:15 AM 33.8 °F 22.2 °F 26.6 °F 75% 30.00 in 10.0 mi NE 20.7 mph 26.5 mph N/A   Scattered Clouds
3:35 AM 33.8 °F 22.2 °F 26.6 °F 75% 30.01 in 10.0 mi NNE 20.7 mph 26.5 mph N/A   Clear
3:55 AM 32.0 °F 20.1 °F 24.8 °F 75% 30.02 in 10.0 mi NNE 19.6 mph - N/A   Clear
4:15 AM 32.0 °F 20.1 °F 24.8 °F 75% 30.04 in 10.0 mi NNE 19.6 mph 23.0 mph N/A   Clear
4:35 AM 32.0 °F 18.6 °F 23.0 °F 69% 30.04 in 10.0 mi NNE 25.3 mph 31.1 mph N/A   Clear
4:55 AM 32.0 °F 20.1 °F 23.0 °F 69% 30.06 in 10.0 mi NNE 19.6 mph 27.6 mph N/A   Clear
5:15 AM 32.0 °F 20.5 °F 23.0 °F 69% 30.07 in 10.0 mi NNE 18.4 mph 26.5 mph N/A   Clear
5:35 AM 32.0 °F 20.8 °F 21.2 °F 64% 30.08 in 10.0 mi NNE 17.3 mph 25.3 mph N/A   Clear
5:55 AM 32.0 °F 21.6 °F 21.2 °F 64% 30.08 in 10.0 mi NE 15.0 mph - N/A   Clear
6:15 AM 32.0 °F 20.8 °F 21.2 °F 64% 30.08 in 10.0 mi NE 17.3 mph 21.9 mph N/A   Clear
6:35 AM 32.0 °F 20.5 °F 19.4 °F 60% 30.09 in 10.0 mi NNE 18.4 mph 24.2 mph N/A   Clear
6:55 AM 30.2 °F 17.1 °F 15.8 °F 55% 30.10 in 10.0 mi NE 21.9 mph 27.6 mph N/A   Clear
7:15 AM 30.2 °F 17.4 °F 14.0 °F 51% 30.11 in 10.0 mi NE 20.7 mph 27.6 mph N/A   Clear
7:35 AM 30.2 °F 18.5 °F 14.0 °F 51% 30.12 in 10.0 mi NE 17.3 mph - N/A   Clear
7:55 AM 32.0 °F 20.5 °F 12.2 °F 44% 30.12 in 10.0 mi NE 18.4 mph 26.5 mph N/A   Clear
8:15 AM 32.0 °F 20.5 °F 12.2 °F 44% 30.14 in 10.0 mi NE 18.4 mph 28.8 mph N/A   Clear
8:35 AM 32.0 °F 20.5 °F 10.4 °F 41% 30.15 in 10.0 mi NE 18.4 mph 29.9 mph N/A   Clear
8:55 AM 33.8 °F 22.8 °F 10.4 °F 38% 30.16 in 10.0 mi NE 18.4 mph 25.3 mph N/A   Clear
9:15 AM 33.8 °F 22.8 °F 10.4 °F 38% 30.18 in 10.0 mi NE 18.4 mph 27.6 mph N/A   Clear
9:35 AM 35.6 °F 24.8 °F 10.4 °F 35% 30.18 in 10.0 mi NE 19.6 mph 25.3 mph N/A   Clear
9:55 AM 35.6 °F 24.8 °F 10.4 °F 35% 30.18 in 10.0 mi NE 19.6 mph 24.2 mph N/A   Clear
10:15 AM 37.4 °F 27.5 °F 12.2 °F 36% 30.19 in 10.0 mi NE 18.4 mph 23.0 mph N/A   Clear
10:35 AM 37.4 °F 27.8 °F 12.2 °F 36% 30.18 in 10.0 mi NE 17.3 mph 20.7 mph N/A   Clear
10:55 AM 39.2 °F 30.2 °F 12.2 °F 33% 30.19 in 10.0 mi NE 17.3 mph 23.0 mph N/A   Clear
11:15 AM 41.0 °F 32.5 °F 12.2 °F 31% 30.20 in 10.0 mi NNE 17.3 mph 23.0 mph N/A   Clear
11:35 AM 41.0 °F 32.2 °F 14.0 °F 33% 30.20 in 10.0 mi NE 18.4 mph 23.0 mph N/A   Clear
11:55 AM 42.8 °F 35.4 °F 14.0 °F 31% 30.20 in 10.0 mi NNE 15.0 mph 24.2 mph N/A   Clear
12:15 PM 42.8 °F 35.4 °F 14.0 °F 31% 30.20 in 10.0 mi NE 15.0 mph 25.3 mph N/A   Clear
12:35 PM 44.6 °F 36.6 °F 14.0 °F 29% 30.20 in 10.0 mi NNE 19.6 mph 25.3 mph N/A   Clear
12:55 PM 44.6 °F 36.4 °F 15.8 °F 31% 30.20 in 10.0 mi NNE 20.7 mph - N/A   Clear
1:15 PM 44.6 °F 38.1 °F 15.8 °F 31% 30.20 in 10.0 mi North 13.8 mph 25.3 mph N/A   Clear
1:35 PM 44.6 °F 38.4 °F 15.8 °F 31% 30.20 in 10.0 mi North 12.7 mph 25.3 mph N/A   Clear
1:55 PM 46.4 °F 39.2 °F 15.8 °F 29% 30.20 in 10.0 mi NNE 18.4 mph 24.2 mph N/A   Clear
2:15 PM 46.4 °F 38.7 °F 17.6 °F 32% 30.19 in 10.0 mi NNE 20.7 mph 25.3 mph N/A   Clear
2:35 PM 46.4 °F 39.5 °F 19.4 °F 34% 30.20 in 10.0 mi NNE 17.3 mph 23.0 mph N/A   Clear
2:55 PM 46.4 °F 39.0 °F 19.4 °F 34% 30.19 in 10.0 mi NNE 19.6 mph 24.2 mph N/A   Clear
3:15 PM 46.4 °F 39.2 °F 21.2 °F 37% 30.19 in 10.0 mi NNE 18.4 mph 24.2 mph N/A   Clear
3:35 PM 44.6 °F 37.2 °F 21.2 °F 39% 30.20 in 10.0 mi NNE 17.3 mph 24.2 mph N/A   Clear
3:55 PM 44.6 °F 36.9 °F 21.2 °F 39% 30.19 in 10.0 mi NNE 18.4 mph 23.0 mph N/A   Clear
4:15 PM 44.6 °F 37.2 °F 23.0 °F 43% 30.20 in 10.0 mi NNE 17.3 mph 23.0 mph N/A   Clear
4:35 PM 44.6 °F 37.2 °F 23.0 °F 43% 30.20 in 10.0 mi NNE 17.3 mph - N/A   Clear
4:55 PM 44.6 °F 36.9 °F 23.0 °F 43% 30.21 in 10.0 mi NNE 18.4 mph 21.9 mph N/A   Clear
5:15 PM 42.8 °F 34.8 °F 23.0 °F 46% 30.21 in 10.0 mi NE 17.3 mph 20.7 mph N/A   Clear
5:35 PM 42.8 °F 35.4 °F 21.2 °F 42% 30.21 in 10.0 mi NNE 15.0 mph - N/A   Clear
5:50 PM 41.0 °F 33.1 °F 21.2 °F 45% 30.22 in 10.0 mi NNE 15.0 mph - N/A   Clear
6:15 PM 39.2 °F 30.8 °F 21.2 °F 49% 30.23 in 10.0 mi NE 15.0 mph - N/A   Clear
6:35 PM 37.4 °F 29.3 °F 21.2 °F 52% 30.24 in 10.0 mi NNE 12.7 mph - N/A   Clear
6:55 PM 35.6 °F 28.0 °F 21.2 °F 56% 30.24 in 10.0 mi NE 10.4 mph - N/A   Clear
7:15 PM 33.8 °F 25.8 °F 21.2 °F 60% 30.26 in 10.0 mi NNE 10.4 mph - N/A   Clear
7:35 PM 33.8 °F 27.0 °F 19.4 °F 56% 30.26 in 10.0 mi NE 8.1 mph - N/A   Clear
7:55 PM 33.8 °F 25.8 °F 17.6 °F 52% 30.27 in 10.0 mi NE 10.4 mph - N/A   Clear
8:15 PM 33.8 °F 26.4 °F 17.6 °F 52% 30.27 in 10.0 mi NE 9.2 mph - N/A   Clear
8:35 PM 32.0 °F 24.8 °F 17.6 °F 55% 30.27 in 10.0 mi NE 8.1 mph - N/A   Clear
8:55 PM 32.0 °F 24.2 °F 17.6 °F 55% 30.27 in 10.0 mi NE 9.2 mph - N/A   Clear
9:15 PM 32.0 °F 24.2 °F 17.6 °F 55% 30.29 in 10.0 mi NNE 9.2 mph - N/A   Clear
9:35 PM 30.2 °F 21.9 °F 17.6 °F 60% 30.30 in 10.0 mi North 9.2 mph - N/A   Clear
9:55 PM 30.2 °F 21.3 °F 17.6 °F 60% 30.30 in 10.0 mi North 10.4 mph - N/A   Clear
10:15 PM 30.2 °F 21.9 °F 17.6 °F 60% 30.31 in 10.0 mi NNE 9.2 mph - N/A   Clear
10:30 PM 30.2 °F 21.9 °F 17.6 °F 60% 30.30 in 10.0 mi NNE 9.2 mph - N/A   Clear
10:55 PM 30.2 °F 20.2 °F 17.6 °F 60% 30.30 in 10.0 mi NE 12.7 mph - N/A   Clear
11:15 PM 30.2 °F 21.3 °F 17.6 °F 60% 30.30 in 10.0 mi NE 10.4 mph - N/A   Clear
11:35 PM 30.2 °F 21.9 °F 17.6 °F 60% 30.30 in 10.0 mi NE 9.2 mph - N/A   Clear
11:55 PM 28.4 °F 19.7 °F 17.6 °F 64% 30.29 in 10.0 mi NE 9.2 mph - N/A   Clear